Estación de Tranapuente INIA
Ultimos registro cada 15 minutos 61
| N° | Estación | Fecha / Hora | Temperatura | Humedad | Lluvia | Velocidad | Dirección | Radiación | Presion |
| 61 | Tranapuente INIA | 08-05-2026 15:00 | 11,6 | 80,9 | 0 | 2,2 | 240 | 129 | 1013 |
| 60 | Tranapuente INIA | 08-05-2026 14:45 | 11,8 | 79,3 | 0 | 1,5 | 244 | 149 | 1013 |
| 59 | Tranapuente INIA | 08-05-2026 14:30 | 12 | 78,2 | 0 | 2,6 | 228 | 146 | 1013 |
| 58 | Tranapuente INIA | 08-05-2026 14:15 | 12,1 | 80,3 | 0 | 2,8 | 223 | 287 | 1013 |
| 57 | Tranapuente INIA | 08-05-2026 14:00 | 12,1 | 84,4 | 0 | 2,6 | 235 | 180 | 1013 |
| 56 | Tranapuente INIA | 08-05-2026 13:45 | 12,4 | 84,7 | 0 | 2,9 | 230 | 198 | 1013 |
| 55 | Tranapuente INIA | 08-05-2026 13:30 | 12,2 | 83,4 | 0 | 2,1 | 226 | 195 | 1013 |
| 54 | Tranapuente INIA | 08-05-2026 13:15 | 11,9 | 88,2 | 0 | 1,9 | 236 | 138 | 1013 |
| 53 | Tranapuente INIA | 08-05-2026 13:00 | 12 | 89,6 | 0 | 2,5 | 245 | 113 | 1013 |
| 52 | Tranapuente INIA | 08-05-2026 12:45 | 12,4 | 89,6 | 0 | 1,8 | 284 | 172 | 1013 |
| 51 | Tranapuente INIA | 08-05-2026 12:30 | 12,5 | 90,3 | 0 | 1,7 | 246 | 206 | 1013 |
| 50 | Tranapuente INIA | 08-05-2026 12:15 | 12,5 | 87,9 | 0 | 1,8 | 250 | 206 | 1013 |
| 49 | Tranapuente INIA | 08-05-2026 12:00 | 12,6 | 88,8 | 0 | 2 | 272 | 187 | 1013 |
| 48 | Tranapuente INIA | 08-05-2026 11:45 | 12,9 | 89,3 | 0 | 2 | 290 | 140 | 1013 |
| 47 | Tranapuente INIA | 08-05-2026 11:30 | 13,4 | 85 | 0 | 1,8 | 293 | 266 | 1012 |
| 46 | Tranapuente INIA | 08-05-2026 11:15 | 13,2 | 86,8 | 0 | 0,7 | 314 | 238 | 1012 |
| 45 | Tranapuente INIA | 08-05-2026 11:00 | 13,3 | 85,7 | 0 | 0,1 | 307 | 156 | 1012 |
| 44 | Tranapuente INIA | 08-05-2026 10:45 | 13,3 | 86,4 | 0 | 0,5 | 320 | 332 | 1012 |
| 43 | Tranapuente INIA | 08-05-2026 10:30 | 13,1 | 85,3 | 0 | 0,2 | 336 | 207 | 1012 |
| 42 | Tranapuente INIA | 08-05-2026 10:15 | 12,8 | 90,8 | 0 | 0 | 0 | 310 | 1012 |
| 41 | Tranapuente INIA | 08-05-2026 10:00 | 12 | 98 | 0 | 0 | 0 | 199 | 1012 |
| 40 | Tranapuente INIA | 08-05-2026 09:45 | 11,3 | 99,7 | 0 | 0 | 0 | 91 | 1012 |
| 39 | Tranapuente INIA | 08-05-2026 09:30 | 10,5 | 100 | 0 | 0 | 0 | 88 | 1012 |
| 38 | Tranapuente INIA | 08-05-2026 09:15 | 10 | 99,7 | 0 | 0 | 0 | 69 | 1012 |
| 37 | Tranapuente INIA | 08-05-2026 09:00 | 10,3 | 98,4 | 0 | 0 | 0 | 54 | 1012 |
| 36 | Tranapuente INIA | 08-05-2026 08:45 | 9,7 | 99,9 | 0 | 0 | 0 | 87 | 1012 |
| 35 | Tranapuente INIA | 08-05-2026 08:30 | 9,3 | 99,4 | 0 | 0 | 0 | 20 | 1012 |
| 34 | Tranapuente INIA | 08-05-2026 08:15 | 9,5 | 99 | 0 | 0 | 0 | 5 | 1011 |
| 33 | Tranapuente INIA | 08-05-2026 08:00 | 9,6 | 99,4 | 0,2 | 0 | 0 | 3 | 1011 |
| 32 | Tranapuente INIA | 08-05-2026 07:45 | 9,8 | 98,4 | 0 | 0 | 0 | 1 | 1011 |
| 31 | Tranapuente INIA | 08-05-2026 07:30 | 9,8 | 99,2 | 0 | 0 | 0 | 0 | 1011 |
| 30 | Tranapuente INIA | 08-05-2026 07:15 | 9,9 | 99,1 | 0 | 0 | 0 | 0 | 1011 |
| 29 | Tranapuente INIA | 08-05-2026 07:00 | 10,3 | 98,5 | 0 | 0 | 0 | 0 | 1010 |
| 28 | Tranapuente INIA | 08-05-2026 06:45 | 11,3 | 97,3 | 0 | 0,3 | 301 | 0 | 1010 |
| 27 | Tranapuente INIA | 08-05-2026 06:30 | 11,4 | 98,1 | 0 | 0,1 | 292 | 0 | 1010 |
| 26 | Tranapuente INIA | 08-05-2026 06:15 | 11,4 | 98,6 | 0,4 | 0,9 | 285 | 0 | 1010 |
| 25 | Tranapuente INIA | 08-05-2026 06:00 | 11,4 | 98,6 | 0,2 | 0 | 310 | 1 | 1010 |
| 24 | Tranapuente INIA | 08-05-2026 05:45 | 11,4 | 98,3 | 0,3 | 0,2 | 282 | 1 | 1010 |
| 23 | Tranapuente INIA | 08-05-2026 05:30 | 11,4 | 97,8 | 0,1 | 0,8 | 293 | 1 | 1010 |
| 22 | Tranapuente INIA | 08-05-2026 05:15 | 11,3 | 97,2 | 0,2 | 2,1 | 316 | 1 | 1010 |
| 21 | Tranapuente INIA | 08-05-2026 05:00 | 11,1 | 97,9 | 0,7 | 1,9 | 345 | 0 | 1010 |
| 20 | Tranapuente INIA | 08-05-2026 04:45 | 11,3 | 96,1 | 0,1 | 2,4 | 6 | 1 | 1010 |
| 19 | Tranapuente INIA | 08-05-2026 04:30 | 11,6 | 93,6 | 0 | 2,9 | 1 | 0 | 1010 |
| 18 | Tranapuente INIA | 08-05-2026 04:15 | 11,8 | 90 | 0 | 2,4 | 2 | 0 | 1009 |
| 17 | Tranapuente INIA | 08-05-2026 04:00 | 11,6 | 88,9 | 0 | 1 | 19 | 0 | 1010 |
| 16 | Tranapuente INIA | 08-05-2026 03:45 | 11,5 | 84,3 | 0 | 1,8 | 35 | 0 | 1010 |
| 15 | Tranapuente INIA | 08-05-2026 03:30 | 11,4 | 84,2 | 0 | 2,5 | 24 | 0 | 1010 |
| 14 | Tranapuente INIA | 08-05-2026 03:15 | 11,4 | 82,5 | 0 | 2,1 | 26 | 0 | 1010 |
| 13 | Tranapuente INIA | 08-05-2026 03:00 | 11,2 | 82,5 | 0 | 2,1 | 39 | 0 | 1010 |
| 12 | Tranapuente INIA | 08-05-2026 02:45 | 11,1 | 84,7 | 0 | 1,4 | 20 | 0 | 1010 |
| 11 | Tranapuente INIA | 08-05-2026 02:30 | 11 | 84,3 | 0 | 0,2 | 139 | 0 | 1010 |
| 10 | Tranapuente INIA | 08-05-2026 02:15 | 10,8 | 82,3 | 0 | 0,1 | 93 | 0 | 1010 |
| 9 | Tranapuente INIA | 08-05-2026 02:00 | 10,8 | 83,3 | 0 | 0,4 | 85 | 0 | 1011 |
| 8 | Tranapuente INIA | 08-05-2026 01:45 | 10,7 | 81,7 | 0 | 0,2 | 74 | 0 | 1011 |
| 7 | Tranapuente INIA | 08-05-2026 01:30 | 10,5 | 82,1 | 0 | 0 | 0 | 0 | 1012 |
| 6 | Tranapuente INIA | 08-05-2026 01:15 | 10,5 | 84,8 | 0 | 0,4 | 4 | 0 | 1012 |
| 5 | Tranapuente INIA | 08-05-2026 01:00 | 10,1 | 81,3 | 0 | 0,6 | 35 | 0 | 1012 |
| 4 | Tranapuente INIA | 08-05-2026 00:45 | 9,2 | 89,1 | 0 | 0 | 0 | 0 | 1012 |
| 3 | Tranapuente INIA | 08-05-2026 00:30 | 9 | 93,2 | 0 | 0 | 0 | 0 | 1012 |
| 2 | Tranapuente INIA | 08-05-2026 00:15 | 8,9 | 92,6 | 0 | 0 | 205 | 0 | 1013 |
| 1 | Tranapuente INIA | 08-05-2026 00:00 | 8,9 | 93 | 0 | 0 | 0 | 0 | 1013 |